Back to catalog

YAOGAN-30 AC

AliveMilitaryVLEO
NORAD 48863·PAYLOAD·🇨🇳 China

Launched Jun 18, 2021 from Xichang Satellite Launch Center

Loading…

Next Passes (next 24 hours)

TLE

FreshSource: Space-Track

Epoch: Sep 14, 2026, 15:10 UTC

1 48863U 21055D   26257.63217759  .00001925  00000-0  14219-3 0  9991
2 48863  34.9967 326.2327 0003597 233.5986 126.4391 15.03026431286359

Track YAOGAN-30 AC in real time with AllMySat

Download on the App Store